This is the latest recevied weather packets stored in our database for station/object W8AN. If no packets are shown the sender has not sent any weather packets the latest 10 day(s).
| Time | Temp. | Humidity | Pressure | Rain* | Wind** | Luminosity | Snow |
|---|---|---|---|---|---|---|---|
| 1777654387 | 6.67° C | 80% | 4268.3 hPa | 0 mm | - | 122 W/m² | - |
| 1777654084 | 6.11° C | 79% | 4268.3 hPa | 0 mm | - | 101 W/m² | - |
| 1777653781 | 6.11° C | 80% | 4268 hPa | 0 mm | - | 82 W/m² | - |
| 1777653477 | 6.11° C | 80% | 4268.1 hPa | 0 mm | - | 88 W/m² | - |
| 1777653175 | 6.11° C | 80% | 4268.3 hPa | 0 mm | - | 109 W/m² | - |
| 1777652870 | 6.67° C | 80% | 4268.1 hPa | 0 mm | - | 125 W/m² | - |
| 1777652567 | 6.11° C | 81% | 4268.2 hPa | 0 mm | - | 142 W/m² | - |
| 1777652264 | 6.11° C | 82% | 4268.2 hPa | 0 mm | - | 111 W/m² | - |
| 1777651961 | 6.11° C | 82% | 4268.1 hPa | 0 mm | - | 101 W/m² | - |
| 1777651657 | 6.11° C | 82% | 4268.1 hPa | 0 mm | - | 84 W/m² | - |
| 1777651355 | 6.11° C | 81% | 4267.8 hPa | 0 mm | - | 72 W/m² | - |
| 1777651052 | 6.67° C | 81% | 4267.8 hPa | 0 mm | - | 72 W/m² | - |
| 1777650749 | 6.67° C | 81% | 4268.1 hPa | 0 mm | - | 214 W/m² | - |
| 1777650446 | 6.67° C | 82% | 4267.9 hPa | 0 mm | - | 180 W/m² | - |
| 1777650143 | 6.67° C | 82% | 4267.8 hPa | 0 mm | - | 245 W/m² | - |
| 1777649840 | 6.67° C | 82% | 4268.1 hPa | 0 mm | - | 188 W/m² | - |
| 1777649537 | 6.67° C | 82% | 4267.8 hPa | 0 mm | - | 315 W/m² | - |
| 1777649234 | 6.11° C | 82% | 4267.7 hPa | 0 mm | - | 189 W/m² | - |
| 1777648931 | 6.11° C | 83% | 4267.8 hPa | 0 mm | - | 166 W/m² | - |
| 1777648628 | 5.56° C | 83% | 4268.1 hPa | 0 mm | - | 120 W/m² | - |
| 1777648324 | 5.56° C | 83% | 4268.3 hPa | 0 mm | - | 120 W/m² | - |
| 1777648021 | 5.56° C | 83% | 4268 hPa | 0 mm | - | 218 W/m² | - |
| 1777647717 | 5.56° C | 83% | 4267.8 hPa | 0 mm | - | 190 W/m² | - |
| 1777647413 | 5° C | 84% | 4267.7 hPa | 0 mm | - | 146 W/m² | - |
| 1777647111 | 5° C | 84% | 4267.6 hPa | 0 mm | - | 137 W/m² | - |
* Rain latest hour (hover to see other rain measurements)
** Current wind speed in m/s (hover to see current wind gust speed)